Wind_Speed
2 2 2 2 2 3 2 2 2 2 3 3 3 4 4 4 3 3 3 3 3 2 2 3 3 3 3 3 3 3 3 3 3 2 3 2 2 1 0 1 1 2 3 3 2 3 4 4 5
2 3 3 3 3 2 2 2 3 3 3 4 4 3 3 3 3 3 3 3 3 3 2 2 3 3 3 3 3 3 3 3 3 3 3 2 1 1 1 1 1 2 2 2 2 2 3 4 4
2 3 3 3 3 3 4 4 4 4 3 4 4 4 4 3 3 3 3 3 3 3 3 3 2 2 3 3 3 3 3 4 4 3 3 2 2 1 2 2 2 2 1 2 2 2 3 3 4
2 3 3 3 4 4 5 5 5 5 4 4 4 4 4 4 4 4 4 4 4 4 4 3 3 3 3 3 3 4 4 4 4 4 4 3 3 3 3 4 3 2 1 2 2 3 3 3 4
3 3 3 3 5 5 6 6 6 6 6 6 5 5 5 5 5 5 5 5 5 5 4 4 4 4 4 4 4 5 5 5 4 4 4 4 4 4 4 4 4 4 4 4 4 4 3 3 4
3 3 3 4 5 6 6 6 6 7 7 7 7 6 6 6 6 6 6 6 5 5 5 5 5 5 5 6 6 6 6 6 5 5 6 6 6 5 5 5 5 5 5 5 5 5 5 5 5
3 3 3 5 5 6 6 6 7 7 7 7 8 7 7 7 6 6 6 6 7 7 7 7 7 7 7 7 7 7 7 7 7 7 7 7 7 7 7 6 5 5 6 6 6 7 7 7 7
4 4 4 6 5 6 6 6 6 7 7 7 8 7 7 7 7 7 7 7 7 8 8 8 8 8 8 8 8 8 9 9 8 8 8 8 8 8 8 7 7 7 8 8 8 8 8 8 8
5 5 5 6 6 6 6 6 6 7 8 8 8 7 8 7 8 8 8 8 8 8 9 9 9 9 9 9 9 9 9 10 10 9 9 9 9 9 9 10 9 9 8 8 9 9 9 9 10
6 5 5 6 6 6 6 6 6 6 7 7 7 7 8 8 8 8 8 8 8 8 9 9 9 9 9 9 9 9 10 10 10 10 10 10 10 10 10 10 10 10 10 10 11 10 10 10 10
6 6 6 6 6 6 6 6 7 7 7 6 7 7 8 9 9 9 9 9 9 9 9 9 9 9 10 10 10 10 10 10 10 10 10 10 11 11 11 11 11 12 12 12 12 11 11 10 10
6 7 7 7 7 7 7 7 7 7 7 7 8 8 8 9 9 10 9 9 10 10 10 10 10 10 10 10 11 11 11 11 11 10 11 11 11 11 11 12 12 12 12 13 13 12 11 10 11
6 7 7 8 8 8 7 7 7 7 8 8 8 8 8 9 10 10 10 10 10 10 10 10 10 10 11 11 12 12 12 12 12 12 12 11 12 12 12 11 12 11 11 11 11 12 11 10 10
7 8 8 8 8 8 8 7 8 8 8 9 9 9 10 10 10 11 11 11 11 11 11 11 11 11 12 12 12 12 13 13 13 13 12 12 12 12 12 12 12 11 11 11 11 11 11 11 11
8 8 8 8 8 8 8 8 8 9 10 10 10 10 11 11 11 11 12 12 12 12 13 13 13 12 13 13 13 13 14 14 14 14 14 14 13 13 12 12 12 11 11 11 11 11 11 11 11
9 9 9 9 9 9 10 9 9 10 11 11 11 11 12 12 12 12 12 13 13 14 14 14 14 13 13 14 13 14 14 15 15 15 15 15 14 13 13 13 12 11 12 12 11 11 11 11 11
9 10 10 10 11 11 11 10 11 11 12 13 13 12 12 13 13 13 13 13 13 14 14 14 14 14 14 14 14 14 14 15 15 15 15 15 15 14 14 13 13 13 13 12 11 11 11 11 11
11 11 11 12 12 12 13 12 12 13 13 14 14 14 14 14 14 14 14 14 14 14 14 14 14 15 15 15 15 15 15 15 15 15 15 15 15 15 15 14 14 14 13 13 13 12 12 12 12
12 12 13 13 14 14 14 14 15 15 15 15 15 15 15 15 15 15 15 15 15 15 15 15 16 15 15 15 15 15 15 15 14 14 14 15 16 16 16 15 15 15 14 14 13 13 13 12 12
13 13 14 14 15 15 15 15 15 15 16 16 15 16 16 16 16 16 16 16 16 16 16 16 16 17 17 16 16 16 16 15 15 15 15 15 16 16 16 16 15 15 15 15 14 13 13 13 13
14 14 14 15 15 15 16 16 16 15 16 17 17 17 17 18 18 18 18 18 17 17 18 18 17 18 18 18 17 17 17 16 16 16 16 17 16 16 16 16 16 15 15 15 14 14 13 13 13
15 15 16 16 16 15 16 16 16 17 17 17 18 18 19 19 19 19 19 19 19 19 19 19 19 19 18 18 18 18 17 17 17 17 17 18 18 17 17 16 16 16 16 15 15 15 15 14 14
15 15 16 16 16 16 15 17 17 18 18 18 18 19 19 20 20 20 20 20 20 20 20 20 20 19 19 19 20 20 19 19 18 18 18 18 18 18 18 18 18 17 16 15 15 16 16 16 17
16 16 16 16 17 16 14 17 19 18 19 18 19 19 19 19 19 20 20 21 21 21 20 21 21 21 21 21 21 21 20 20 20 20 19 19 19 19 18 19 19 18 17 17 17 17 17 18 18
15 16 15 16 17 17 16 18 19 18 19 20 20 19 19 20 20 21 21 21 22 22 22 22 22 22 22 23 23 22 21 21 21 21 20 20 20 20 19 19 19 18 18 19 19 18 18 19 19
16 16 16 16 16 17 17 20 20 20 20 19 19 20 20 21 21 21 21 21 22 22 23 23 23 23 23 23 23 22 22 23 22 22 22 22 21 20 20 20 20 20 20 20 21 21 21 20 20
17 17 17 18 17 17 17 19 21 22 21 20 20 20 21 21 22 21 21 21 22 23 23 23 24 23 23 23 23 23 23 23 23 23 23 22 22 22 22 21 22 22 22 22 22 22 22 22 21
17 18 17 17 18 19 18 19 21 22 22 22 22 22 22 22 23 22 22 22 23 23 23 23 24 24 23 23 23 23 24 23 23 24 24 24 23 23 23 23 23 24 23 23 23 23 23 23 23
18 17 19 20 20 19 20 20 21 22 23 23 24 23 22 22 23 23 23 23 23 23 23 24 24 24 24 25 24 24 24 24 24 24 24 24 24 25 25 24 24 24 24 24 24 24 24 24 24
19 19 19 20 20 21 21 23 22 23 24 24 24 23 22 23 23 23 23 23 24 24 24 25 25 25 25 26 25 25 25 25 25 25 25 25 25 25 25 25 25 25 25 25 25 25 25 25 25
Wind_Direction
189 198 204 208 201 202 199 207 227 240 237 237 241 239 239 237 235 241 243 242 240 242 246 250 253 252 256 261 269 280 282 282 285 290 295 306 319 315 295 276 274 281 281 293 285 256 262 262 254
195 203 200 202 200 211 205 231 246 250 246 241 239 242 240 230 228 231 240 245 241 248 245 247 253 256 256 261 277 294 300 299 298 298 301 317 328 295 311 293 284 285 283 291 290 286 279 278 264
203 208 207 210 210 227 237 246 251 246 248 248 241 240 237 233 227 238 247 250 246 247 251 253 254 254 266 276 288 296 303 314 308 293 304 312 323 306 281 288 277 283 297 307 310 311 296 287 278
219 222 224 224 230 241 250 254 253 246 248 248 243 239 242 244 243 247 250 250 252 253 252 253 252 254 268 287 295 296 297 304 308 298 295 301 310 306 297 288 284 281 283 288 303 305 299 292 283
226 226 229 240 246 250 255 258 257 254 250 250 247 246 248 249 249 250 252 252 251 258 255 250 257 262 267 283 297 297 299 298 298 294 295 291 298 297 294 288 278 276 281 281 285 291 300 301 295
234 234 238 252 261 261 258 256 255 256 253 253 254 250 250 251 253 253 254 258 257 258 257 254 260 264 271 279 287 292 297 296 296 292 291 289 290 295 292 289 282 278 285 292 295 294 293 295 296
240 244 252 262 268 270 263 258 257 254 253 256 257 252 254 255 256 255 255 259 262 263 261 259 260 266 273 275 278 285 290 290 289 285 286 287 287 290 287 285 285 287 288 287 284 287 287 287 290
245 248 254 263 269 272 266 263 260 257 257 259 261 259 252 253 259 261 262 263 266 267 266 262 263 268 273 276 277 279 284 287 286 284 282 282 287 289 287 286 288 290 290 286 285 286 287 286 287
245 249 255 265 270 272 272 269 263 257 257 259 262 262 258 258 260 263 265 266 269 271 271 272 271 271 273 276 277 280 283 284 283 280 280 279 281 285 288 290 293 290 288 289 290 292 290 288 288
246 249 256 264 271 274 274 272 269 266 263 261 259 260 262 261 260 263 264 266 269 272 274 275 275 272 272 276 279 280 283 282 280 278 277 278 281 284 286 287 287 286 285 286 287 287 288 286 286
246 249 252 258 264 271 274 272 271 274 277 275 269 264 266 267 263 263 264 266 270 274 277 277 275 273 273 276 279 282 284 284 281 281 277 279 281 284 285 287 285 284 284 284 284 281 281 282 282
253 251 252 258 263 265 268 271 272 275 278 279 279 273 268 269 269 265 264 265 268 272 276 278 278 275 273 274 278 280 283 286 284 282 285 284 285 285 286 286 287 288 286 285 283 280 278 279 280
255 255 255 262 262 263 265 269 273 276 279 278 277 274 272 272 273 268 266 267 271 273 277 278 279 278 276 275 275 276 281 281 279 279 281 283 285 286 287 290 288 286 286 287 286 283 280 279 280
258 261 262 263 263 262 266 270 274 278 278 280 280 280 279 276 276 273 267 269 272 275 278 279 279 277 277 277 276 278 280 280 280 279 278 279 281 282 285 287 287 286 284 285 288 286 282 278 278
258 260 263 265 265 265 266 269 277 281 281 281 281 280 279 275 275 276 274 273 275 277 279 279 279 277 277 278 277 277 279 280 280 280 279 277 279 281 281 282 284 286 284 283 284 283 281 280 278
258 258 258 263 267 268 270 275 277 280 281 281 281 280 276 275 275 275 276 277 278 279 278 280 280 279 278 278 277 278 278 278 279 280 280 278 278 279 281 282 285 284 283 281 280 280 280 280 279
253 255 260 262 265 268 272 277 278 279 280 281 281 280 278 276 276 275 277 277 276 278 280 280 278 278 279 279 278 279 279 278 278 279 279 278 277 277 277 280 282 282 281 279 277 276 279 282 282
256 256 260 264 265 268 271 275 277 279 279 280 280 279 278 276 275 275 276 275 273 273 278 280 279 277 277 279 280 281 280 280 279 278 277 277 277 276 276 277 279 280 280 278 275 273 276 280 282
253 256 261 265 269 270 271 273 274 275 277 278 279 280 279 277 275 274 274 274 273 274 278 280 279 278 278 278 279 280 280 281 280 278 278 277 276 275 274 276 276 277 278 274 273 273 276 279 280
251 255 259 262 263 266 271 274 273 272 277 279 280 281 281 280 277 275 273 272 273 274 275 276 274 276 277 277 277 275 279 281 281 281 279 279 278 274 274 274 275 275 275 274 273 273 276 280 280
251 257 262 263 262 269 274 273 272 272 276 280 280 280 279 279 277 275 274 273 272 273 273 274 274 275 277 276 274 272 273 278 280 280 279 277 277 276 274 273 272 271 272 273 272 274 277 281 281
254 257 262 264 266 272 275 276 275 278 277 278 279 278 277 277 277 276 273 273 271 271 272 274 275 273 274 272 273 273 273 275 277 279 277 277 277 277 276 275 274 273 272 272 273 274 275 276 278
257 260 264 264 268 271 273 276 276 279 280 280 279 278 278 278 277 277 276 274 272 272 273 275 274 272 272 271 271 271 271 274 275 276 277 278 278 277 275 274 273 272 270 271 272 273 275 275 276
258 257 261 264 270 271 271 274 274 278 279 279 279 280 281 280 280 279 279 277 274 272 273 273 273 273 271 272 271 269 269 271 272 274 274 276 277 276 275 274 273 274 273 271 271 273 275 275 277
255 256 260 266 270 272 273 271 275 278 279 281 282 283 282 281 283 281 279 277 275 274 273 273 272 272 271 271 272 269 269 270 272 271 272 274 274 275 274 275 274 274 275 273 272 273 275 275 277
255 254 258 265 269 273 271 270 277 280 282 281 283 282 281 282 283 283 281 278 275 274 273 273 273 272 271 271 271 270 270 271 272 273 272 273 273 272 274 276 277 275 275 274 273 273 275 275 277
257 255 259 263 266 267 268 273 279 281 283 283 281 281 283 282 282 282 281 279 278 275 274 274 273 272 271 270 271 271 271 271 272 273 273 275 273 271 274 276 275 275 275 274 275 274 274 275 278
261 259 259 261 264 267 267 269 276 282 283 283 283 283 284 284 282 280 280 280 281 277 276 275 272 271 272 273 273 271 271 271 270 271 274 275 271 272 274 274 273 272 274 275 274 273 276 276 277
262 260 261 262 266 269 272 272 273 277 280 282 284 284 284 284 284 283 281 280 279 278 277 274 271 270 270 271 271 271 270 271 269 269 272 272 270 271 273 274 274 273 274 275 274 273 275 276 277
266 263 263 263 264 267 271 273 275 275 276 278 281 284 284 285 285 284 283 282 280 278 276 274 270 268 269 269 269 270 269 270 270 269 269 269 269 270 272 273 273 273 273 274 273 273 273 276 277
Height
5860 5861 5862 5863 5864 5864 5864 5864 5864 5865 5865 5866 5866 5867 5867 5868 5870 5873 5871 5870 5871 5871 5871 5872 5872 5872 5872 5872 5872 5872 5872 5872 5872 5872 5872 5872 5871 5871 5871 5871 5872 5872 5872 5871 5871 5871 5872 5872 5872
5861 5861 5862 5863 5863 5863 5864 5864 5864 5865 5866 5866 5866 5867 5867 5868 5869 5870 5869 5870 5871 5871 5871 5871 5872 5872 5872 5872 5872 5872 5872 5872 5872 5872 5872 5872 5872 5871 5871 5871 5872 5872 5872 5872 5872 5871 5872 5872 5872
5860 5861 5862 5863 5862 5863 5864 5864 5864 5865 5865 5865 5866 5867 5867 5868 5869 5869 5869 5870 5870 5871 5871 5872 5872 5872 5872 5872 5872 5872 5872 5872 5872 5872 5872 5871 5871 5871 5871 5871 5872 5872 5872 5872 5872 5872 5872 5872 5872
5860 5861 5862 5863 5862 5862 5863 5863 5864 5864 5865 5865 5866 5867 5867 5868 5868 5869 5869 5870 5870 5871 5871 5871 5871 5872 5872 5872 5872 5872 5872 5872 5872 5872 5871 5871 5871 5871 5871 5871 5871 5872 5872 5872 5872 5872 5872 5871 5871
5860 5861 5862 5861 5861 5862 5862 5862 5863 5864 5864 5865 5865 5866 5866 5868 5868 5868 5869 5869 5870 5870 5870 5871 5871 5871 5872 5872 5872 5872 5872 5871 5871 5871 5871 5871 5871 5871 5871 5871 5871 5871 5872 5872 5872 5871 5871 5871 5871
5860 5860 5861 5860 5861 5861 5861 5862 5862 5863 5864 5864 5865 5866 5866 5867 5867 5868 5868 5869 5869 5869 5870 5870 5870 5871 5871 5871 5871 5871 5871 5871 5871 5871 5871 5871 5871 5871 5871 5871 5871 5871 5871 5871 5871 5871 5871 5871 5871
5860 5860 5860 5860 5860 5860 5861 5861 5861 5862 5863 5863 5864 5865 5865 5866 5866 5867 5867 5868 5868 5869 5869 5869 5870 5870 5870 5870 5870 5870 5870 5870 5870 5870 5870 5870 5870 5870 5870 5870 5870 5870 5870 5870 5870 5870 5870 5870 5869
5858 5860 5859 5859 5859 5860 5860 5860 5860 5861 5862 5863 5863 5864 5864 5865 5866 5866 5866 5867 5867 5867 5868 5868 5868 5869 5869 5869 5869 5869 5869 5869 5869 5869 5869 5869 5869 5868 5869 5869 5869 5869 5869 5869 5869 5869 5869 5869 5868
5858 5860 5859 5859 5859 5859 5859 5860 5860 5860 5861 5861 5862 5863 5863 5864 5864 5865 5865 5866 5866 5866 5866 5867 5867 5867 5867 5867 5867 5867 5868 5867 5867 5867 5868 5868 5868 5868 5867 5868 5868 5868 5868 5868 5868 5867 5867 5867 5867
5857 5858 5858 5858 5858 5858 5858 5859 5859 5860 5860 5861 5861 5862 5862 5863 5863 5863 5864 5864 5865 5865 5865 5865 5865 5866 5866 5866 5866 5866 5866 5866 5866 5866 5866 5866 5866 5866 5866 5866 5866 5866 5866 5866 5866 5866 5866 5865 5865
5856 5857 5857 5857 5857 5858 5858 5858 5858 5859 5859 5860 5860 5860 5861 5861 5862 5862 5863 5863 5863 5863 5864 5864 5864 5864 5864 5864 5864 5864 5864 5864 5864 5864 5864 5864 5864 5864 5864 5864 5864 5865 5865 5864 5864 5864 5864 5864 5863
5854 5855 5855 5856 5856 5857 5857 5857 5858 5858 5859 5859 5859 5859 5859 5860 5860 5860 5861 5861 5862 5862 5862 5862 5862 5862 5862 5862 5862 5863 5862 5862 5862 5862 5862 5862 5862 5862 5862 5863 5862 5862 5862 5862 5862 5862 5862 5861 5861
5853 5853 5854 5854 5855 5855 5856 5856 5857 5857 5857 5857 5858 5858 5858 5858 5859 5859 5859 5860 5860 5860 5860 5860 5860 5860 5860 5860 5860 5861 5861 5861 5861 5860 5860 5860 5860 5860 5860 5861 5860 5860 5860 5860 5860 5860 5859 5859 5859
5851 5852 5852 5853 5853 5854 5855 5855 5856 5856 5856 5856 5856 5857 5857 5857 5857 5857 5857 5858 5858 5858 5858 5858 5858 5858 5858 5858 5858 5858 5858 5858 5858 5858 5858 5858 5858 5858 5858 5858 5858 5858 5858 5858 5858 5857 5857 5857 5857
5849 5850 5850 5851 5852 5853 5853 5854 5854 5854 5854 5854 5855 5855 5855 5855 5855 5855 5856 5856 5856 5856 5856 5856 5856 5856 5856 5855 5855 5856 5856 5856 5856 5856 5856 5856 5856 5856 5856 5856 5856 5856 5855 5855 5855 5855 5855 5855 5855
5847 5848 5849 5850 5850 5851 5853 5853 5852 5852 5852 5852 5852 5853 5853 5853 5853 5853 5853 5853 5853 5853 5854 5853 5853 5853 5853 5853 5853 5853 5853 5853 5853 5853 5853 5853 5853 5853 5853 5853 5853 5853 5853 5853 5853 5853 5853 5853 5853
5845 5846 5847 5848 5848 5849 5850 5850 5850 5850 5850 5850 5850 5850 5850 5850 5851 5851 5851 5851 5851 5851 5851 5851 5851 5850 5850 5850 5850 5850 5850 5850 5850 5850 5850 5850 5850 5851 5851 5850 5851 5850 5850 5850 5850 5850 5851 5850 5850
5843 5844 5845 5846 5846 5847 5847 5847 5848 5847 5847 5848 5847 5848 5848 5848 5848 5848 5848 5848 5848 5848 5848 5848 5848 5847 5848 5848 5847 5847 5847 5847 5847 5847 5847 5847 5847 5848 5848 5848 5848 5848 5848 5848 5848 5848 5848 5848 5848
5840 5841 5842 5843 5843 5844 5844 5844 5845 5844 5845 5845 5845 5845 5845 5845 5845 5845 5845 5845 5844 5844 5845 5845 5844 5844 5844 5844 5844 5844 5844 5844 5844 5844 5844 5844 5844 5844 5844 5845 5845 5845 5845 5845 5845 5845 5845 5845 5845
5837 5838 5839 5840 5840 5841 5841 5841 5841 5841 5841 5842 5842 5842 5842 5842 5842 5842 5842 5842 5841 5841 5841 5841 5841 5841 5841 5841 5841 5841 5841 5841 5841 5841 5841 5841 5841 5841 5841 5841 5841 5842 5842 5842 5842 5842 5842 5842 5842
5834 5835 5836 5837 5837 5837 5838 5838 5838 5838 5838 5838 5838 5838 5838 5838 5838 5838 5838 5838 5838 5838 5838 5837 5837 5837 5837 5837 5837 5837 5837 5837 5837 5837 5837 5837 5837 5837 5838 5838 5838 5838 5838 5839 5839 5839 5839 5839 5839
5830 5832 5832 5833 5833 5834 5835 5834 5834 5834 5834 5834 5834 5834 5834 5834 5833 5833 5833 5833 5833 5834 5833 5833 5833 5833 5833 5833 5833 5833 5833 5834 5834 5833 5833 5833 5833 5834 5834 5834 5834 5834 5835 5835 5835 5835 5835 5836 5835
5827 5828 5828 5829 5829 5830 5830 5831 5831 5830 5830 5830 5830 5830 5829 5829 5829 5828 5828 5829 5829 5829 5829 5828 5828 5828 5828 5828 5828 5828 5829 5829 5829 5829 5829 5829 5829 5829 5830 5830 5830 5830 5831 5831 5831 5831 5832 5832 5832
5823 5824 5825 5825 5826 5826 5827 5827 5826 5826 5826 5826 5825 5825 5825 5825 5824 5823 5823 5823 5823 5824 5824 5823 5823 5823 5823 5823 5823 5823 5823 5824 5824 5824 5824 5824 5825 5825 5825 5825 5826 5826 5826 5827 5827 5827 5827 5827 5827
5819 5821 5821 5821 5822 5823 5823 5822 5823 5822 5822 5822 5821 5820 5820 5820 5820 5819 5818 5818 5818 5818 5818 5818 5818 5818 5818 5818 5818 5818 5818 5818 5818 5819 5819 5820 5820 5820 5820 5820 5821 5821 5822 5822 5823 5823 5823 5823 5823
5815 5816 5818 5818 5818 5819 5819 5818 5819 5817 5818 5817 5816 5816 5815 5815 5814 5813 5813 5813 5812 5812 5812 5812 5812 5812 5812 5812 5812 5812 5812 5812 5812 5813 5813 5814 5814 5815 5815 5815 5816 5816 5817 5817 5818 5818 5818 5818 5818
5811 5811 5813 5813 5813 5814 5815 5815 5814 5813 5813 5812 5812 5811 5810 5810 5809 5808 5807 5807 5806 5806 5806 5806 5806 5806 5806 5806 5806 5806 5806 5806 5807 5807 5808 5808 5808 5809 5810 5810 5810 5811 5811 5812 5812 5812 5813 5813 5812
5807 5807 5808 5808 5809 5809 5810 5810 5809 5808 5807 5807 5806 5806 5805 5804 5803 5802 5802 5801 5800 5799 5799 5799 5799 5800 5800 5800 5800 5800 5800 5800 5801 5801 5801 5801 5802 5803 5804 5804 5804 5805 5805 5806 5806 5806 5806 5807 5807
5801 5803 5802 5803 5804 5805 5805 5807 5804 5803 5802 5802 5801 5800 5799 5798 5797 5796 5795 5795 5794 5793 5793 5793 5793 5793 5793 5793 5793 5793 5794 5794 5794 5794 5794 5795 5796 5796 5797 5797 5797 5798 5799 5799 5799 5800 5800 5800 5800
5796 5797 5798 5799 5799 5799 5799 5801 5798 5798 5797 5796 5795 5794 5793 5792 5791 5790 5789 5788 5787 5786 5786 5786 5786 5786 5787 5786 5786 5787 5787 5787 5787 5787 5788 5788 5789 5789 5790 5790 5791 5791 5792 5792 5792 5793 5793 5793 5793